Location: Palmerston North
(40.3500°S, 175.6170°E)
Time: 02:49:16
(UTC+13:00)

H-2A R/B - Pass Details

Date: 24 January 2019
Orbit: 734 x 836 km, 98.3° (Epoch: 23 February)

Event Time Altitude Azimuth Distance (km) Brightness Sun altitude
Rises 22:35:18 0° 166° (SSE) 3,263 5.7 -17.9°
Reaches altitude 10° 22:37:39 10° 164° (SSE) 2,316 4.9 -18.3°
Maximum altitude 22:42:45 78° 77° (ENE) 775 1.8 -18.9°
Enters shadow 22:45:38 26° 354° (N) 1,458 3.1 -19.3°
